EST,Max TemperatureF,Mean TemperatureF,Min TemperatureF,Max Dew PointF,MeanDew PointF,Min DewpointF,Max Humidity, Mean Humidity, Min Humidity, Max Sea Level PressureIn, Mean Sea Level PressureIn, Min Sea Level PressureIn, Max VisibilityMiles, Mean VisibilityMiles, Min VisibilityMiles, Max Wind SpeedMPH, Mean Wind SpeedMPH, Max Gust SpeedMPH,PrecipitationIn, CloudCover, Events, WindDirDegrees
2013-11-1,68,60,51,61,49,43,100,75,49,29.80,29.72,29.52,10,10,1,30,14,47,0.46,6,Rain,264
2013-11-2,55,48,42,45,40,34,93,73,51,30.12,29.91,29.80,10,10,10,14,7,20,0.00,4,Rain,297
2013-11-3,51,42,32,41,36,32,100,77,50,30.38,30.27,30.12,10,10,3,7,3,,0.00,3,,53
2013-11-4,60,48,37,41,36,32,87,64,45,30.42,30.37,30.34,10,10,10,12,5,16,0.00,0,,161
2013-11-5,64,55,46,41,35,30,71,48,30,30.45,30.37,30.29,10,10,7,9,5,,0.00,0,,185
2013-11-6,71,60,50,59,47,32,100,64,47,30.28,30.14,30.03,10,9,4,22,8,33,0.43,6,Rain,231
2013-11-7,55,44,33,55,36,28,100,76,46,30.28,30.21,30.03,10,10,5,15,8,22,0.32,4,Rain,323
2013-11-8,50,41,32,30,29,27,93,71,40,30.40,30.32,30.26,10,10,4,12,5,20,0.00,0,,296
2013-11-9,60,46,32,32,29,27,100,57,27,30.29,30.20,30.13,10,10,10,23,8,34,0.00,0,,234
2013-11-10,53,42,30,37,31,25,93,62,35,30.36,30.29,30.18,10,10,10,15,8,21,0.00,0,,304
2013-11-11,60,44,28,41,29,27,93,56,29,30.34,30.23,30.12,10,10,10,13,5,22,0.00,2,,244
2013-11-12,48,34,21,43,25,18,100,78,52,30.62,30.46,30.17,10,9,2,20,11,28,0.12,5,Rain-Snow,22
2013-11-13,39,28,17,27,21,16,100,76,52,30.66,30.57,30.44,10,10,7,8,3,,0.00,0,,251
2013-11-14,53,40,26,25,21,19,80,53,26,30.43,30.33,30.23,10,10,10,13,7,18,0.00,0,,234
2013-11-15,53,44,35,45,32,19,93,60,40,30.24,30.19,30.15,10,10,10,16,7,25,0.03,3,Rain,215
2013-11-16,62,53,44,54,50,43,100,89,72,30.19,30.10,30.00,10,10,7,16,7,24,0.00,6,,197
2013-11-17,64,58,53,63,56,43,100,85,59,29.99,29.85,29.69,10,9,1,23,15,31,1.16,7,Rain,224
2013-11-18,55,46,37,43,36,28,87,66,41,30.20,30.05,29.88,10,10,10,20,8,28,0.00,0,,299
2013-11-19,41,36,30,30,28,27,87,77,61,30.33,30.28,30.20,10,10,10,13,6,17,0.00,1,,45
2013-11-20,55,42,30,32,29,27,86,64,38,30.32,30.28,30.23,10,10,10,10,6,,0.00,0,,131
2013-11-21,59,47,35,50,39,30,81,64,51,30.36,30.29,30.23,10,10,2,13,6,18,0.00,6,,186
2013-11-22,57,49,41,55,50,36,100,95,81,30.35,30.25,30.19,10,7,2,15,7,23,0.11,8,Rain,294
2013-11-23,41,32,24,36,26,12,87,72,33,30.52,30.39,30.32,10,10,10,18,7,26,0.01,5,,357
2013-11-24,30,22,15,18,10,5,93,60,40,30.69,30.58,30.51,10,10,5,15,6,23,0.00,1,Snow,30
2013-11-25,41,31,21,32,17,10,100,59,39,30.52,30.36,30.21,10,10,2,12,5,18,0.00,3,Snow,213
2013-11-26,33,32,32,34,33,32,100,100,93,30.21,30.02,29.88,10,5,2,10,4,,0.37,8,Rain-Snow,30
2013-11-27,32,26,19,30,23,18,93,83,60,30.31,30.07,29.90,10,9,0,15,8,25,0.00,6,Snow,337
2013-11-28,35,24,14,23,19,14,100,77,56,30.47,30.38,30.31,10,10,10,13,6,17,0.00,0,,240
2013-11-29,42,30,19,27,23,18,93,74,49,30.61,30.55,30.47,10,10,10,7,4,,0.05,0,,168
2013-11-30,51,38,24,32,27,21,93,68,44,30.50,30.37,30.23,10,10,10,15,6,23,0.00,0,,212